Theta_e
305 305 305 305 305 306 306 306 306 306 306 306 306 308 314 317 317 317 314 317 322 327 326 325 324 322 321 321 319 320 320 320 321 321 322 323 323 323 324 325 327 329 330 331 332 330 328 327 326 325 326 327 327 326 328 327 326 327 325 324 331 332 328 322 318 323 326 329 332 329 331 332 326 327 329 328 327 321 324 336 332 320 316 318 322 322 330
305 305 305 305 305 305 306 306 306 306 306 306 306 309 313 315 315 316 315 312 318 325 328 327 325 323 321 321 320 320 320 320 321 321 322 323 323 323 325 327 328 329 331 331 332 329 327 328 329 328 327 326 327 327 327 327 326 326 326 326 327 327 327 324 318 319 319 319 323 324 325 326 324 329 329 327 330 325 328 338 333 322 318 320 325 323 329
305 305 305 305 305 305 305 306 306 305 305 306 307 309 312 315 317 319 321 317 317 323 327 327 326 325 323 321 321 320 321 321 321 322 322 323 323 323 324 326 328 329 330 329 331 330 327 328 331 331 329 326 328 327 325 328 326 325 336 341 327 326 334 327 317 316 319 320 323 323 323 324 325 328 328 328 331 325 323 324 321 321 323 324 327 327 333
304 305 305 305 305 305 305 306 306 305 305 306 307 309 312 317 321 323 323 321 319 321 325 325 325 326 324 324 323 321 321 322 321 322 322 323 323 323 323 327 328 329 329 329 330 330 328 329 332 333 333 330 330 329 327 327 327 334 353 352 331 329 338 336 327 322 324 328 334 338 330 322 319 323 325 327 329 328 329 320 317 328 331 324 329 335 333
304 305 305 305 305 305 305 306 306 305 304 306 308 309 314 319 323 322 319 320 323 323 324 324 324 325 324 324 325 323 323 323 322 322 323 322 323 323 325 328 328 327 330 329 327 328 331 332 331 333 337 337 335 334 331 327 333 352 361 351 340 335 331 337 344 336 334 338 336 333 330 323 320 321 323 326 327 328 327 318 323 341 331 318 334 346 332
304 305 304 304 305 304 305 306 306 304 303 307 310 313 318 322 321 317 314 317 321 322 322 322 323 325 325 324 322 322 324 325 324 324 324 323 324 326 328 329 328 328 329 328 327 330 330 331 333 338 340 340 338 336 335 331 338 352 348 340 345 340 328 332 338 334 335 336 330 328 331 327 326 326 323 325 327 324 323 324 337 347 328 322 340 349 337
304 305 304 304 305 304 304 306 306 304 304 308 313 317 320 319 315 313 312 313 315 317 318 320 323 326 329 328 324 321 322 325 326 326 326 325 324 327 329 328 327 328 329 329 331 332 328 328 337 345 343 341 340 338 336 335 338 339 334 336 340 335 330 333 329 325 327 329 329 330 328 325 326 327 326 328 327 326 325 328 339 346 340 344 351 348 346
304 304 304 304 304 304 304 305 306 305 305 308 312 315 317 317 315 313 312 312 315 317 319 321 323 326 329 331 329 324 321 323 325 326 328 329 329 327 327 328 327 327 328 329 331 333 333 336 342 344 342 342 341 339 338 336 335 332 329 334 335 329 331 338 330 322 323 327 329 329 327 326 323 323 330 330 328 330 328 327 331 334 337 351 355 347 348
304 304 304 304 304 304 305 305 306 306 306 308 310 312 313 314 315 313 312 314 318 318 319 321 322 324 327 330 330 327 325 324 325 329 329 329 331 329 327 327 327 326 326 329 332 334 335 338 338 337 338 339 338 337 337 334 333 334 332 333 335 333 334 337 329 319 318 324 327 326 325 325 320 319 327 328 325 327 328 331 335 329 330 343 345 339 345
304 304 304 304 304 304 305 305 305 306 306 308 308 309 310 312 315 315 313 315 318 319 320 322 324 325 325 327 328 329 328 326 329 337 337 330 329 330 329 328 329 330 332 333 334 334 333 333 334 334 335 335 333 334 335 332 332 336 336 335 337 336 333 332 328 319 318 323 325 324 322 319 316 319 326 328 330 331 330 331 336 335 340 345 339 337 347
304 304 304 304 304 304 305 305 305 306 306 307 307 308 309 311 313 314 313 315 318 318 320 323 325 325 323 321 323 327 331 330 331 338 340 332 328 330 330 329 331 336 337 333 332 332 331 332 333 333 333 333 333 333 332 332 333 335 338 341 344 347 345 340 332 320 317 325 328 324 319 317 322 332 334 334 333 332 332 333 336 343 350 349 344 345 352
304 304 304 304 304 304 305 304 305 306 306 306 307 307 309 310 311 313 313 314 316 316 317 320 322 321 319 317 319 325 332 332 330 332 333 334 335 333 330 331 336 338 334 328 328 330 331 333 333 333 334 332 332 333 331 332 333 333 335 339 347 357 354 344 336 325 322 332 335 323 316 322 337 345 340 336 335 336 339 341 344 347 348 350 348 349 354
304 304 304 304 304 304 305 304 304 305 306 306 307 307 308 309 311 313 313 313 315 315 315 317 318 317 316 316 317 321 325 328 328 329 330 336 341 338 331 331 335 335 329 325 328 332 336 339 337 337 337 333 331 333 332 331 331 332 333 336 346 357 351 339 334 330 326 326 328 324 324 334 348 347 339 336 342 346 343 341 348 348 346 351 350 346 355
304 304 304 304 304 304 304 304 304 305 306 306 306 307 308 309 311 313 313 314 314 314 314 316 318 317 315 315 317 319 320 321 324 327 328 331 335 334 331 331 332 329 326 328 332 338 343 344 339 336 335 335 332 332 332 332 332 331 333 335 338 346 350 342 332 330 326 320 322 327 327 331 339 342 340 338 339 345 341 337 345 351 349 356 358 349 352
304 304 304 304 305 304 304 303 303 304 305 305 306 307 308 308 310 312 313 313 313 314 315 318 318 317 315 315 317 319 319 320 321 323 324 325 326 328 330 332 330 326 325 329 335 341 343 338 331 326 326 327 326 327 330 332 332 330 333 338 336 341 355 350 333 330 330 321 320 326 320 320 331 340 345 342 334 341 345 338 344 356 353 352 355 351 350
304 304 305 304 304 305 304 303 303 304 304 305 306 307 307 308 310 312 313 312 313 315 316 316 315 315 315 315 316 317 317 320 321 321 322 324 325 325 325 325 326 325 325 330 336 339 339 334 328 324 324 325 323 324 327 327 329 331 330 331 329 335 352 351 333 329 331 324 322 323 318 323 343 350 346 340 334 343 349 336 337 355 357 349 351 353 352
304 305 305 304 304 305 304 303 303 303 304 305 306 306 307 307 309 311 312 312 313 313 314 314 314 314 314 314 315 316 317 319 321 323 324 324 323 322 321 321 324 325 325 330 335 336 335 334 330 326 326 328 325 324 326 324 324 327 330 338 340 338 344 343 328 324 330 329 326 324 324 338 357 349 339 339 339 352 352 332 333 353 358 350 348 351 353
304 304 305 305 304 305 305 304 303 303 303 304 305 306 307 307 308 311 312 312 312 312 313 313 313 312 313 313 313 314 315 317 319 323 324 325 324 321 318 320 325 327 326 331 336 336 334 332 331 327 327 331 328 326 328 326 322 324 333 344 349 349 348 343 331 325 326 326 323 322 330 350 357 341 337 338 338 346 340 333 343 356 353 348 345 344 350
304 304 304 305 304 304 305 304 303 303 303 303 305 306 306 306 308 310 312 312 313 313 312 312 311 311 312 312 311 311 312 314 317 319 320 323 323 318 317 323 328 329 331 333 335 335 331 330 333 330 326 330 332 331 332 330 326 330 337 334 335 341 344 341 337 334 331 332 331 326 332 349 347 336 340 340 337 340 340 343 351 350 344 346 345 342 346
304 304 304 304 304 304 305 304 303 303 303 303 305 306 306 306 307 309 311 312 312 312 311 311 311 311 311 311 310 310 311 313 315 315 316 319 319 317 324 332 331 331 336 337 337 337 330 329 335 330 326 334 343 342 340 337 335 340 345 340 338 340 337 336 343 349 346 344 341 333 335 348 344 340 355 358 349 353 361 358 351 343 341 345 345 343 346
304 304 303 304 304 304 304 304 303 303 303 303 304 306 307 307 307 308 310 311 312 311 311 311 312 311 311 311 311 311 311 312 312 313 315 317 317 317 323 327 326 330 336 335 336 339 334 334 339 333 332 345 354 347 341 341 343 345 345 346 347 346 342 342 351 359 353 345 345 344 346 350 343 344 362 363 355 360 366 358 350 346 344 345 346 347 347
304 304 304 303 304 304 304 304 304 303 303 303 304 306 307 307 307 308 310 311 312 312 311 311 312 312 312 313 313 313 313 311 311 311 313 316 317 317 320 323 324 328 331 331 334 336 333 335 339 338 339 345 347 345 342 342 343 346 346 345 348 353 355 353 355 357 352 348 353 356 352 347 342 345 352 351 348 351 350 345 344 345 345 345 347 347 348
303 304 304 303 304 304 304 304 304 303 303 303 304 305 306 306 307 309 310 311 311 312 312 312 313 314 315 315 315 316 315 313 311 310 312 315 317 319 323 324 322 323 327 330 331 331 330 332 335 339 343 344 339 340 343 340 340 346 349 348 345 346 349 355 364 363 352 345 347 348 343 339 339 340 341 340 340 342 342 343 345 345 346 347 347 347 350
304 304 304 303 303 304 304 304 304 303 303 302 303 305 306 306 307 309 310 311 312 313 313 313 314 316 316 316 316 317 316 313 312 312 312 314 315 318 322 322 319 321 326 326 326 327 328 330 333 336 341 342 339 339 341 341 339 342 348 349 346 340 339 347 358 357 349 348 349 345 339 337 337 337 338 338 337 338 342 347 348 346 346 346 344 345 350
304 304 304 303 303 304 304 304 304 303 303 302 303 304 305 306 307 308 310 311 312 312 312 313 314 316 316 313 312 313 312 311 311 312 312 311 312 315 318 318 317 320 322 322 322 325 328 331 332 334 338 343 344 342 343 345 343 342 346 349 350 350 346 344 348 351 352 354 353 346 343 341 336 336 339 338 337 338 340 342 343 341 342 343 343 343 346
304 304 304 303 303 303 304 304 304 304 303 302 302 304 306 306 306 308 310 311 311 312 313 313 314 316 315 314 312 311 311 310 309 311 312 312 311 312 315 316 318 319 320 321 322 325 328 330 331 333 339 346 345 339 339 344 344 343 343 342 343 350 351 346 347 353 357 355 350 348 350 346 336 335 338 338 336 337 337 337 337 336 338 341 341 342 343
304 304 304 304 304 303 304 304 304 303 303 302 303 304 305 305 306 308 309 310 311 312 313 313 313 314 314 313 313 313 311 309 308 309 311 312 312 311 312 315 318 319 319 320 322 325 329 331 330 329 333 336 335 333 338 345 346 344 342 339 338 346 350 349 349 354 357 357 353 352 352 345 336 336 339 338 336 336 336 336 335 333 336 338 336 337 342
303 304 304 304 304 303 303 304 304 303 303 302 303 304 306 306 307 308 309 310 310 311 312 311 311 312 313 314 314 313 311 309 308 309 311 311 312 312 312 313 316 317 317 319 322 326 327 328 328 327 329 330 331 333 337 340 341 340 338 335 336 340 344 349 352 351 349 347 345 347 349 343 336 337 339 339 338 336 333 333 333 333 334 334 333 335 340
303 304 304 304 304 303 303 303 303 303 302 302 304 306 308 309 309 309 309 308 308 309 310 310 312 313 315 316 315 312 310 309 310 310 311 311 312 313 313 314 316 316 315 317 321 325 327 326 325 326 329 330 331 333 332 333 339 342 337 330 330 330 331 336 340 337 334 333 334 339 343 340 335 336 338 338 338 336 332 330 332 332 331 331 335 339 341
303 304 304 304 304 304 303 303 303 303 302 303 305 308 309 310 310 308 306 306 306 308 309 310 312 314 314 315 315 314 311 310 311 311 311 312 312 313 314 315 318 318 317 318 320 322 323 323 322 324 326 327 328 330 329 331 340 344 335 327 327 326 325 328 329 326 327 331 332 333 336 336 336 336 334 334 335 334 333 334 334 333 334 336 337 340 340
303 303 304 304 304 304 303 303 303 302 302 304 306 308 311 312 311 307 305 305 306 307 309 311 312 314 315 316 316 315 312 311 312 312 312 312 313 313 313 315 317 319 319 321 322 321 321 322 321 320 323 326 328 327 324 327 335 337 330 326 329 327 325 328 329 326 327 329 328 328 330 332 333 332 328 327 329 330 332 336 336 335 339 338 334 333 332
303 303 303 303 303 304 304 303 302 302 303 304 306 307 309 310 309 306 305 305 306 308 310 312 314 316 316 318 316 313 313 312 312 313 314 315 315 315 315 315 315 315 317 321 324 323 323 323 321 318 321 327 328 324 322 327 333 333 328 326 328 329 328 329 328 327 327 326 325 327 329 328 329 329 327 327 328 329 331 333 330 327 330 329 325 325 326
303 303 304 303 303 304 303 302 302 301 302 303 304 305 307 308 307 306 305 306 307 308 309 312 314 316 316 317 316 312 311 312 313 314 316 317 316 316 316 315 314 315 316 319 321 322 321 321 320 319 321 327 327 322 322 324 324 324 323 323 325 328 328 327 327 326 327 326 326 326 328 328 328 329 330 330 330 329 329 327 324 322 323 325 324 325 326
303 303 303 303 303 303 303 302 301 301 303 304 306 307 308 308 307 306 305 306 307 308 309 311 314 316 317 317 316 311 309 312 314 316 317 317 317 317 318 317 316 316 317 316 318 320 321 321 321 321 321 323 323 322 322 321 319 317 320 322 324 326 326 325 326 326 325 326 327 327 327 327 327 330 332 331 328 326 326 326 325 324 324 324 325 325 325
303 303 303 303 303 303 302 301 302 303 305 307 308 309 309 309 307 306 305 306 308 310 311 312 313 314 316 318 317 313 311 312 315 317 318 319 318 318 319 320 320 319 317 315 317 320 321 321 322 323 322 322 323 324 322 319 317 319 323 324 325 326 326 325 326 326 325 326 326 326 325 325 326 329 331 329 327 328 328 327 327 326 325 325 325 326 327
302 303 303 303 302 302 303 304 304 305 307 308 309 309 309 308 306 305 305 306 308 311 313 314 315 316 317 318 318 315 311 313 318 319 317 318 318 316 316 321 324 321 316 316 318 320 320 320 321 323 323 322 324 325 323 320 320 323 325 326 326 326 326 326 326 326 327 325 324 324 325 324 325 329 329 327 327 327 326 325 326 327 327 327 327 327 328
302 302 303 303 303 303 305 306 306 306 307 308 308 308 307 306 305 306 308 309 309 310 310 312 314 315 316 317 318 315 312 314 319 320 317 318 319 317 315 321 326 323 319 321 322 321 320 321 322 322 323 324 326 326 323 323 324 325 325 325 325 325 326 326 325 325 325 324 324 325 324 323 324 327 327 325 325 324 324 326 327 327 326 326 327 327 327
302 303 303 304 304 305 306 307 308 307 307 307 307 307 308 308 309 310 311 311 310 310 310 310 312 314 314 316 318 316 314 316 318 319 317 317 319 319 317 319 322 322 322 324 324 321 322 324 323 322 323 325 325 324 323 323 323 324 324 324 324 324 325 325 324 324 325 326 326 326 325 324 325 326 326 325 324 322 323 325 326 325 325 325 326 326 326
303 303 304 304 305 305 307 308 308 307 307 307 307 309 310 311 311 313 313 312 312 312 311 310 312 313 314 316 317 315 314 316 319 321 319 317 318 321 321 319 319 320 323 324 322 320 322 325 324 322 323 325 326 324 323 322 322 322 323 322 323 324 325 324 324 324 325 325 325 325 325 325 325 325 325 326 325 323 323 324 324 324 325 325 326 326 326
304 304 305 305 306 306 307 307 307 306 307 308 308 309 311 311 311 312 313 313 313 313 312 310 311 312 312 314 317 317 315 315 318 321 321 320 319 320 321 321 319 320 322 323 322 321 322 323 323 324 325 327 327 324 322 322 323 322 323 323 323 324 325 325 324 323 323 323 323 322 322 323 323 323 324 324 324 324 324 324 325 325 324 325 326 327 326
305 305 305 305 306 306 306 307 307 306 307 309 309 309 310 310 311 311 312 312 312 312 311 311 312 313 312 312 316 319 318 317 317 319 321 323 322 320 322 324 322 320 321 322 323 324 324 322 323 326 326 326 325 324 323 323 324 323 323 324 325 326 326 325 323 322 322 323 324 324 323 322 322 323 324 324 325 326 326 326 326 325 324 325 326 326 325
305 305 304 304 305 306 307 308 308 308 308 309 309 309 308 309 310 311 312 312 311 311 312 312 313 314 314 312 314 317 317 317 317 318 320 322 322 321 323 325 322 320 321 321 321 323 324 322 323 327 327 325 324 324 324 324 325 324 324 326 327 327 326 325 324 323 322 324 325 325 324 323 322 323 323 324 325 326 326 326 326 326 325 326 326 325 325
304 305 305 305 306 307 308 308 308 309 309 308 308 308 308 309 310 310 311 311 312 312 313 313 313 313 313 313 314 315 314 315 318 320 320 321 320 320 321 323 321 319 320 320 319 321 323 324 325 328 327 324 323 323 324 324 324 325 325 325 326 326 325 325 325 324 323 323 324 324 324 323 323 323 323 324 324 325 325 325 326 326 326 326 326 326 328
305 305 306 307 307 307 308 308 308 309 308 307 307 308 308 309 309 309 310 312 313 313 314 314 314 314 313 314 317 317 315 316 319 320 319 319 319 318 319 321 320 319 319 320 319 320 323 325 327 327 325 322 321 322 323 324 325 325 325 324 323 324 324 324 324 324 323 323 324 323 323 324 324 323 324 325 325 325 324 325 325 326 326 327 327 328 329
305 305 306 307 307 306 307 308 308 308 308 308 306 307 309 309 310 310 311 312 313 314 313 315 316 316 316 316 318 318 318 318 320 320 319 318 319 319 319 320 320 319 319 318 319 322 324 326 326 324 323 321 321 322 323 324 325 324 324 324 323 323 323 324 324 324 324 324 323 323 323 323 323 323 324 325 324 324 324 325 326 327 327 328 329 329 328
305 305 305 306 306 306 306 307 307 307 308 308 307 308 309 310 312 313 312 312 313 314 314 315 318 318 317 317 319 320 320 320 320 320 319 318 319 319 319 319 320 319 318 318 320 323 325 325 324 323 322 322 323 323 324 324 323 323 323 324 323 323 322 322 323 323 323 323 324 324 324 323 323 324 324 324 324 325 325 326 327 327 327 327 328 327 326
305 305 305 306 306 305 306 307 307 307 307 308 309 309 309 310 312 313 312 312 314 315 316 317 318 319 318 318 319 319 319 318 319 319 318 318 318 317 317 318 318 317 317 319 323 324 324 323 324 323 323 323 323 323 324 324 324 324 324 324 324 323 322 322 322 323 323 323 324 324 324 324 324 324 324 324 324 325 325 326 326 326 326 325 325 325 325
305 305 305 305 305 306 306 307 307 307 307 308 308 309 309 310 311 313 313 314 315 316 316 316 318 320 319 318 318 317 316 317 318 319 318 317 317 317 316 316 316 316 318 322 324 324 323 324 324 324 323 323 323 324 325 325 324 324 324 323 323 323 322 322 322 323 323 323 323 324 324 325 324 324 324 325 325 325 325 325 325 324 323 323 324 324 324
305 305 305 305 306 306 306 307 307 307 308 308 307 308 309 311 312 313 314 315 316 317 316 317 318 319 318 316 315 316 317 317 317 316 316 316 316 316 315 315 316 318 320 323 324 323 323 324 325 325 324 324 324 325 325 324 323 323 323 323 323 323 323 323 323 323 323 323 323 324 324 324 324 324 324 325 325 325 325 325 324 323 322 322 323 323 322
305 305 305 305 306 307 307 308 308 309 308 308 310 310 309 310 312 313 313 315 317 320 319 318 317 317 317 315 313 314 315 316 316 315 315 315 315 315 315 317 320 322 322 322 322 323 323 324 326 326 325 325 325 325 325 324 324 324 324 323 322 322 322 323 323 323 323 323 323 323 323 324 324 324 324 324 324 324 324 324 324 324 323 322 323 323 323
304 305 305 305 306 307 308 309 310 310 310 311 313 313 311 311 314 315 315 315 317 318 318 317 316 314 314 313 312 311 313 315 316 315 315 315 315 315 318 320 321 322 321 322 322 323 323 325 325 325 325 325 325 325 325 325 325 324 323 322 322 322 322 323 323 322 322 323 322 323 323 323 323 323 324 323 323 324 325 324 324 324 323 322 322 323 323
304 304 305 306 308 309 310 310 310 310 311 312 313 313 312 314 316 317 316 316 317 315 314 315 315 313 311 312 313 313 313 314 313 313 314 315 316 318 320 321 321 321 322 322 322 323 324 325 325 325 325 325 325 325 325 325 325 324 322 322 322 322 322 323 322 322 322 322 322 323 323 323 323 322 323 322 323 324 325 324 324 324 323 323 323 323 323
Wind_Speed
25 26 28 29 30 32 34 37 36 38 40 34 28 19 6 2 8 18 23 14 10 8 3 6 5 6 8 10 13 13 11 12 12 12 14 13 11 11 10 12 13 10 8 8 8 6 3 5 8 9 11 13 13 15 20 20 17 12 7 8 10 7 5 5 2 3 8 10 12 17 16 12 8 7 6 6 6 6 4 5 4 3 4 4 4 3 3
25 26 27 29 30 31 33 36 35 35 36 31 22 12 3 4 7 13 19 18 10 6 5 5 5 7 10 12 15 14 12 13 13 13 13 11 10 10 9 11 11 9 8 9 8 5 3 6 7 7 9 10 16 20 21 20 16 10 7 7 7 6 5 5 1 1 6 8 7 10 13 10 6 4 5 7 10 12 7 1 2 3 5 6 5 3 4
25 26 27 29 30 32 33 34 35 34 34 31 18 6 4 5 4 5 10 13 9 6 5 5 6 7 10 13 15 14 12 12 14 15 15 15 13 11 9 10 9 8 9 10 8 6 5 6 7 6 8 8 14 19 22 21 15 12 13 11 8 6 5 5 4 3 5 7 6 6 7 6 4 5 7 8 9 11 8 2 2 3 6 6 7 4 5
25 25 27 29 30 32 32 33 35 33 33 33 18 6 4 4 3 3 5 6 4 5 7 9 8 8 9 10 11 14 14 12 14 16 15 16 17 14 11 10 10 10 10 9 9 9 8 7 8 7 6 5 5 8 16 21 16 16 20 16 8 5 5 6 7 8 8 6 6 6 9 7 6 8 11 11 10 8 6 5 4 4 4 4 6 10 8
24 25 27 28 29 31 32 33 35 34 33 31 16 6 4 2 3 4 5 5 5 4 6 7 7 9 10 7 8 14 15 11 12 13 12 14 17 13 8 7 8 10 11 9 9 10 8 8 11 7 5 4 7 11 9 15 20 19 18 15 8 3 4 8 9 9 10 8 6 5 8 9 9 11 13 13 14 10 5 6 7 7 7 4 8 15 14
24 25 26 27 29 31 31 33 35 35 32 26 11 4 3 3 3 6 7 4 4 5 6 10 11 13 12 9 10 15 16 13 11 9 10 14 13 6 3 7 11 13 13 10 8 8 8 8 7 4 6 6 8 13 15 8 14 20 13 8 7 3 3 8 9 9 9 9 9 7 6 7 6 7 12 16 16 14 9 7 7 9 8 6 11 16 16
23 24 25 26 28 30 30 32 35 35 32 22 7 4 3 4 3 5 7 5 6 8 12 15 15 14 13 9 10 15 16 16 13 7 8 11 7 5 5 10 14 15 14 10 7 6 7 6 2 3 5 6 7 6 10 13 6 13 13 8 5 3 2 5 6 7 8 9 11 9 7 6 5 8 8 11 13 12 11 9 7 8 7 8 13 14 13
22 23 24 25 27 28 29 30 33 35 32 21 7 3 5 5 3 5 6 6 8 9 10 12 11 11 11 8 9 13 15 16 15 9 7 8 6 4 9 14 15 15 14 12 7 5 7 6 3 3 5 4 5 3 3 9 13 8 7 6 4 4 5 5 3 2 2 6 10 12 11 6 5 10 10 8 9 9 9 9 8 8 6 8 14 13 8
21 22 23 24 26 27 28 28 31 32 29 20 9 5 8 9 9 8 6 6 7 7 8 9 9 7 7 8 9 10 11 13 12 7 4 7 9 10 14 16 13 12 15 12 7 8 10 10 9 7 6 3 2 2 5 9 12 11 7 3 6 5 4 4 4 2 1 4 7 11 12 8 8 11 10 10 9 6 5 4 4 7 7 7 12 9 6
21 22 22 24 25 25 26 26 28 29 26 18 8 6 11 13 11 8 6 6 6 6 7 9 8 6 7 11 11 9 11 13 10 4 3 7 11 12 15 15 9 5 8 8 5 9 9 9 10 6 4 4 3 3 8 13 11 8 6 1 5 7 4 3 4 3 1 4 8 8 7 6 8 8 8 9 7 3 4 7 8 9 7 7 7 6 5
21 21 21 23 23 24 24 24 25 25 24 18 10 10 12 12 9 7 5 5 5 5 6 7 6 8 13 17 15 10 11 13 10 4 4 8 11 12 14 14 8 2 3 4 5 8 8 6 8 6 6 7 6 6 10 15 13 6 2 3 1 5 5 3 3 3 1 3 6 6 4 4 6 3 2 3 4 5 5 7 11 8 2 7 5 5 7
20 20 20 22 22 23 23 22 22 22 21 19 14 14 15 13 10 6 4 4 6 6 6 7 8 12 16 18 16 8 6 8 8 7 7 8 9 12 13 11 5 3 6 7 8 9 8 6 7 7 6 7 8 9 12 15 14 8 3 2 2 5 5 3 2 3 2 2 5 3 4 5 4 2 4 7 8 7 6 7 7 6 7 10 9 8 8
19 19 19 20 21 22 22 22 21 20 21 20 17 16 18 17 10 4 3 5 6 5 7 10 13 15 16 18 18 12 7 8 8 9 10 6 3 7 11 8 4 3 8 10 10 8 5 4 5 5 6 7 8 9 12 14 13 9 6 3 4 5 4 3 3 2 2 2 4 2 4 4 2 4 4 4 6 7 7 6 5 5 5 6 9 8 8
19 18 18 19 19 21 22 21 19 19 21 22 19 18 19 17 10 4 3 3 5 7 8 8 11 15 17 17 16 13 12 11 10 9 10 8 6 8 7 5 4 4 5 7 7 5 3 3 3 3 3 4 5 5 8 11 10 8 7 4 3 3 2 3 3 1 1 2 2 1 4 5 3 3 4 2 2 4 4 2 3 3 4 4 7 7 7
18 17 17 18 18 20 21 21 19 19 20 22 20 18 19 17 14 9 4 2 6 7 4 4 9 15 16 14 13 11 9 9 10 10 10 10 9 6 2 4 7 3 5 5 3 3 3 2 2 2 0 1 3 3 4 5 6 6 7 4 2 1 2 3 1 2 1 2 1 1 3 4 2 1 3 3 4 3 4 3 4 5 5 5 6 7 7
17 17 16 17 17 19 20 20 19 19 20 22 20 19 18 14 13 13 6 2 5 5 3 9 14 14 11 10 12 11 6 5 8 8 7 8 11 11 9 9 7 4 3 3 2 2 2 2 2 3 2 3 3 3 2 2 3 4 5 6 7 5 4 5 3 1 1 3 1 2 2 3 2 1 3 5 5 5 6 4 5 7 7 5 6 7 7
17 16 16 16 17 18 19 20 19 19 19 20 20 20 17 11 12 14 8 3 4 6 8 13 13 10 7 6 9 8 6 6 6 5 6 8 10 11 12 14 11 5 2 2 1 1 2 3 3 3 3 4 3 2 1 1 2 3 3 3 6 3 3 5 5 4 3 5 2 1 1 3 4 3 5 6 8 10 9 2 5 7 7 4 7 8 6
17 16 16 16 16 17 18 18 19 19 19 20 20 20 18 12 13 15 8 4 4 6 9 12 11 8 6 6 7 7 6 7 6 4 5 6 6 10 12 10 8 6 3 2 1 2 3 3 3 2 2 4 4 1 1 2 1 2 2 1 1 1 3 2 2 3 3 5 5 3 1 2 4 4 5 5 7 9 5 3 5 6 7 5 9 9 7
17 17 16 15 15 16 16 17 18 18 19 20 19 19 17 13 14 16 9 4 4 6 10 14 13 9 8 8 6 5 6 7 5 5 5 4 6 12 13 7 3 5 5 3 2 2 3 3 3 2 2 4 3 1 0 0 1 2 2 1 1 2 2 2 0 1 2 1 1 2 1 2 3 5 6 5 4 2 2 3 4 4 6 8 9 9 8
17 16 15 15 15 15 15 16 17 18 18 18 18 19 19 14 15 17 13 6 4 6 10 13 11 8 9 9 7 6 6 6 4 4 4 4 7 11 9 3 3 5 5 5 4 2 3 3 2 2 2 2 2 1 2 2 4 5 3 1 2 2 1 1 1 1 3 3 3 2 2 6 3 2 4 4 2 5 5 3 1 3 7 9 9 9 9
16 16 15 15 14 14 14 15 16 17 16 17 17 17 18 15 14 18 19 13 6 4 7 11 13 14 15 13 11 10 7 6 6 4 3 3 5 5 3 3 5 4 3 4 3 2 3 3 3 2 0 0 0 1 2 2 4 6 6 3 3 3 2 2 1 0 3 4 1 2 3 6 5 2 1 1 1 2 2 2 3 5 6 7 7 8 8
16 15 15 15 13 13 14 14 16 17 15 16 16 14 15 18 17 19 22 17 8 7 13 20 23 23 24 22 19 16 11 8 8 6 3 3 3 2 3 4 4 3 2 3 3 3 4 3 3 3 3 2 1 1 1 1 2 5 8 6 2 1 2 2 1 1 2 3 3 3 1 4 4 4 4 4 5 5 5 6 6 6 6 5 6 7 8
15 15 15 14 13 13 13 13 15 16 15 15 15 13 15 19 20 21 21 15 10 11 17 22 21 19 20 21 20 18 12 9 10 8 3 1 3 3 1 1 4 3 2 3 2 3 4 4 3 3 3 2 1 1 2 3 3 2 2 3 1 1 1 2 1 2 6 6 6 4 5 5 6 6 6 6 7 7 7 7 7 5 5 5 6 7 7
14 14 14 14 13 12 12 13 14 15 15 15 14 14 16 18 18 19 17 10 5 6 9 10 8 8 9 8 8 12 13 10 7 5 2 1 1 3 1 2 3 3 3 4 3 2 3 4 3 3 3 2 2 2 2 3 3 2 2 1 1 3 4 4 3 4 5 4 9 12 10 8 8 9 7 8 8 7 6 5 6 6 6 6 7 7 6
14 14 13 13 13 12 12 13 14 14 15 15 14 14 15 16 15 14 13 8 4 4 5 4 6 9 6 2 1 6 9 7 4 4 5 7 7 4 2 4 4 4 3 5 5 3 3 4 3 3 4 2 1 2 1 2 2 1 2 3 2 3 4 4 2 2 4 5 6 7 10 8 7 8 7 7 8 8 8 7 7 8 8 8 8 7 5
13 13 13 13 13 12 12 13 13 14 15 15 14 13 14 16 16 14 13 10 4 3 4 3 7 11 10 9 8 5 4 5 6 6 7 8 9 8 5 3 4 5 4 4 4 3 4 3 3 4 4 3 1 1 1 1 1 1 1 3 4 3 2 2 2 2 3 4 4 2 4 6 7 9 8 7 8 9 10 9 9 10 10 9 8 8 7
13 13 12 13 13 12 12 12 12 14 15 14 14 13 15 17 15 12 13 12 6 3 3 3 6 12 16 18 18 13 6 5 6 7 7 8 9 9 6 4 3 4 4 4 3 3 3 2 3 4 2 2 3 2 0 1 1 1 2 3 4 4 4 3 2 3 2 4 3 3 2 0 4 5 4 5 5 7 7 7 8 9 9 8 8 8 8
12 12 12 12 13 12 12 12 12 13 14 15 14 14 16 17 14 12 15 14 7 3 4 4 6 11 14 15 15 12 8 6 6 7 8 9 8 7 5 3 3 3 3 3 3 3 2 2 4 3 1 1 2 2 1 2 2 0 1 4 4 3 3 5 5 4 3 3 4 4 4 4 3 2 2 2 4 5 8 7 8 7 7 7 7 6 7
11 11 11 11 12 12 12 11 12 12 13 15 14 14 14 13 10 7 9 8 5 3 4 5 5 6 8 9 8 9 10 8 7 7 7 7 7 6 4 3 3 3 3 2 3 3 2 3 3 2 1 0 1 3 3 2 3 1 3 8 9 7 5 4 5 6 5 5 5 4 3 2 1 2 5 5 6 6 7 7 7 7 7 6 6 6 5
11 11 11 11 12 12 12 11 11 11 12 13 12 10 7 4 1 3 5 7 8 6 3 3 4 4 5 8 9 8 10 9 7 7 7 6 5 4 3 3 3 3 2 2 2 2 2 3 3 2 1 1 1 3 3 2 2 0 4 9 10 9 10 9 7 6 6 4 3 2 2 1 2 4 7 7 7 7 7 6 7 7 6 5 6 6 5
11 11 11 11 12 12 11 11 11 11 11 10 8 4 1 3 2 5 7 7 8 6 3 3 5 4 4 5 7 7 8 10 8 7 7 7 5 4 5 4 3 3 3 3 2 2 2 3 3 3 4 4 3 2 2 3 2 2 5 8 8 8 9 8 6 6 5 3 2 1 1 3 5 6 7 7 7 6 5 4 5 6 6 6 7 7 7
11 11 11 11 12 11 11 11 11 11 10 10 9 8 8 8 7 6 6 7 7 5 3 3 4 3 2 3 5 7 8 8 7 5 5 5 5 5 5 3 3 3 2 0 1 1 2 2 3 2 2 2 2 3 3 2 2 4 6 7 6 7 8 7 5 4 3 2 3 2 4 7 7 5 4 4 5 5 5 5 6 7 8 8 9 9 9
10 11 11 11 12 12 12 11 11 12 13 14 15 16 16 14 11 7 6 7 6 5 3 3 3 3 3 4 3 5 6 5 3 3 3 4 3 3 3 3 3 2 1 2 0 1 2 2 2 1 1 0 1 2 2 2 1 1 5 8 8 6 6 5 4 4 4 6 6 5 5 5 5 4 4 4 5 6 6 6 7 9 8 7 7 8 8
10 10 10 11 12 12 12 12 12 13 12 11 12 12 10 6 4 3 5 6 5 5 3 2 3 3 4 5 3 4 6 4 2 3 3 3 3 3 3 3 2 0 1 2 2 2 2 2 2 2 2 1 2 1 1 2 3 3 4 8 8 6 5 4 5 7 7 7 7 6 6 6 6 6 7 7 7 7 7 7 7 8 7 7 7 8 8
8 9 10 11 11 13 13 12 11 10 9 10 10 8 4 4 4 5 5 5 3 2 2 2 2 3 3 4 2 3 4 5 3 3 3 3 3 3 2 2 1 1 2 2 1 2 2 2 1 1 2 2 2 1 2 4 3 2 7 9 7 6 7 7 8 8 7 7 8 8 9 9 9 9 8 8 8 8 8 7 7 7 7 7 7 8 8
7 8 9 10 10 11 11 9 8 7 6 6 6 4 4 6 7 6 7 7 6 3 2 2 2 3 3 4 2 1 1 4 3 1 2 2 2 2 2 1 1 1 2 2 2 2 2 1 1 1 2 2 2 3 2 1 5 11 14 13 11 10 10 10 9 9 8 9 11 11 10 10 9 8 8 7 7 7 8 8 7 7 7 7 7 7 7
7 7 7 8 8 8 7 6 8 9 8 6 6 7 8 8 6 5 6 8 8 7 3 3 3 3 3 3 2 2 2 2 2 1 1 1 1 2 2 2 1 1 1 2 2 2 1 0 1 0 0 1 2 3 4 8 12 14 13 11 10 10 10 10 10 9 10 10 11 10 9 8 8 7 7 7 7 7 7 6 6 6 6 7 7 6 6
6 4 5 5 5 3 3 3 4 6 7 8 8 8 5 4 3 3 4 4 5 6 4 3 4 4 3 3 4 2 2 2 2 1 0 0 1 1 2 1 0 1 1 1 1 1 1 1 1 1 1 1 3 7 10 12 12 11 10 10 9 8 8 8 8 9 8 8 8 7 7 7 6 6 6 6 6 7 6 6 6 6 6 5 5 5 7
3 2 3 5 4 2 4 5 3 2 4 6 6 4 2 2 2 2 3 3 3 3 4 4 4 3 3 4 3 1 2 2 2 2 2 2 2 1 1 1 1 1 0 1 1 2 1 1 1 0 0 2 5 9 11 11 11 10 10 9 8 7 6 6 7 7 6 5 5 5 6 6 6 6 6 5 6 6 6 6 6 6 5 6 7 6 6
3 3 4 3 2 4 9 10 7 4 4 4 3 2 1 1 2 1 1 2 2 2 3 4 3 3 5 5 2 2 4 3 2 3 3 1 1 1 1 1 1 1 1 1 1 1 0 1 1 2 2 3 5 8 10 10 9 9 9 8 7 7 6 6 5 5 5 4 4 4 5 5 6 6 6 6 6 6 6 6 6 6 7 8 8 8 8
3 3 3 4 8 10 12 11 7 4 3 2 2 2 1 1 2 1 1 2 3 2 3 3 2 3 4 4 1 2 3 3 1 2 2 1 1 2 1 0 0 1 1 1 1 1 0 1 2 4 4 5 8 9 10 9 9 9 8 7 6 6 5 5 5 5 5 4 4 4 5 6 6 6 6 6 5 5 6 6 6 7 9 10 10 12 14
2 4 7 10 12 11 9 6 3 2 2 1 1 1 2 1 2 2 2 2 1 1 2 3 3 2 2 2 2 2 2 2 2 2 1 1 1 1 1 1 0 0 1 0 1 0 1 1 4 4 4 6 9 10 10 9 9 8 8 7 6 5 5 5 5 6 6 5 4 4 5 6 6 6 7 7 7 6 6 7 7 9 12 14 16 18 18
5 8 8 7 6 4 3 2 1 1 1 0 0 1 2 2 2 1 1 1 1 1 2 2 2 1 3 4 3 1 0 1 1 1 1 1 1 1 1 1 1 0 1 0 1 1 2 3 4 4 4 6 8 9 8 8 8 7 7 7 7 7 8 8 7 7 8 8 6 6 7 7 7 9 10 10 9 7 8 9 10 11 14 16 17 18 17
5 6 4 2 1 1 1 1 1 1 1 1 1 1 2 2 2 2 2 1 1 0 0 0 0 1 2 3 2 0 0 1 1 1 1 0 1 1 1 1 1 1 1 0 1 1 3 4 4 4 5 6 7 7 8 8 7 7 7 8 8 8 8 8 7 7 7 8 8 8 8 8 9 10 10 10 9 9 9 10 12 13 15 15 14 13 13
3 2 1 0 1 1 1 1 0 1 2 1 2 3 3 2 2 2 3 1 1 1 1 2 1 1 2 2 1 0 0 1 1 1 0 0 1 2 1 0 1 2 1 1 1 1 4 3 3 4 6 7 7 8 8 8 7 7 8 8 9 9 9 9 8 7 7 7 8 9 8 8 8 8 7 9 11 11 10 10 12 13 13 12 11 10 11
2 1 1 1 1 1 1 0 1 1 2 2 3 4 4 1 0 1 1 1 2 2 2 3 3 2 3 2 0 1 1 1 1 1 1 1 1 1 0 1 0 1 1 1 1 3 4 3 3 5 7 7 7 8 8 7 7 8 8 8 9 10 10 10 10 8 8 8 9 10 9 8 8 6 6 9 11 10 10 11 12 12 11 10 9 9 11
2 2 1 1 1 1 1 1 2 3 3 3 3 2 1 1 1 2 3 4 3 3 3 3 3 2 2 1 0 1 1 1 1 1 2 1 1 1 2 2 1 1 1 1 2 4 4 4 4 5 6 6 7 7 7 6 7 7 7 7 8 10 10 10 9 9 9 10 9 8 8 9 9 7 6 7 8 8 9 10 9 9 9 9 9 9 10
2 2 1 1 1 2 2 3 3 3 3 2 2 2 1 1 1 2 4 4 4 4 4 2 2 1 1 1 1 1 1 1 1 1 1 1 1 2 2 1 1 1 1 3 4 3 3 4 4 4 5 6 6 5 5 5 6 7 7 7 8 8 9 9 8 8 9 9 8 6 6 8 9 8 7 6 6 8 9 9 8 8 8 8 9 10 10
3 2 1 2 2 1 1 3 3 2 2 2 2 2 1 1 2 3 4 3 4 4 4 3 2 1 1 0 1 1 1 2 1 0 0 1 1 1 1 1 0 1 3 4 3 3 3 4 4 4 5 5 4 4 4 4 5 5 5 5 6 6 6 6 7 8 9 8 7 7 7 7 7 7 6 5 5 7 8 8 7 6 6 6 6 7 8
2 2 2 2 2 2 3 4 4 3 2 1 2 3 2 1 3 3 3 3 2 2 2 2 1 1 1 1 1 0 0 0 0 1 1 0 1 2 1 1 2 3 3 3 3 4 4 3 3 4 4 4 4 3 3 4 4 4 4 5 5 6 6 6 7 8 9 9 8 8 8 7 7 7 7 6 7 8 7 6 6 5 5 5 5 5 6
2 2 3 3 2 2 2 3 3 4 3 3 3 4 3 3 4 3 4 3 2 1 1 1 1 0 1 1 0 0 0 0 0 1 1 1 2 1 1 3 4 3 3 3 4 4 4 3 3 3 3 3 3 3 3 3 4 4 4 5 6 6 7 7 6 7 7 8 8 8 7 7 7 8 8 8 8 7 6 6 6 6 5 6 6 5 5
2 2 3 2 2 2 2 1 2 4 3 3 2 3 3 4 3 1 2 2 1 1 1 1 0 0 1 1 1 1 1 1 0 1 1 0 1 2 3 4 3 3 3 3 4 3 3 3 3 3 3 3 3 3 3 4 4 4 4 5 5 6 6 6 6 6 7 7 7 7 7 7 7 8 9 8 6 5 4 5 7 7 7 7 7 7 6
Wind_Direction
338 339 339 342 346 348 348 349 350 355 357 356 348 337 310 274 281 285 301 290 194 170 199 211 216 233 238 247 249 249 251 253 256 259 262 264 261 251 245 256 260 258 272 286 291 304 310 255 228 205 200 195 189 194 193 194 205 211 204 198 207 224 221 211 239 203 196 199 186 182 191 203 209 214 204 195 225 233 190 166 179 184 189 179 108 96 244
338 339 340 342 346 347 346 347 349 355 358 354 343 333 306 291 290 285 294 290 257 225 226 225 224 234 242 246 248 250 250 250 252 256 259 258 261 259 252 258 256 245 247 256 272 305 309 292 279 238 226 203 188 193 195 195 202 201 188 181 188 213 212 182 177 298 191 196 195 185 190 194 197 212 209 203 210 214 221 211 135 185 197 163 122 126 223
337 338 341 343 345 346 344 345 349 352 355 353 344 316 293 295 266 258 284 287 268 238 240 250 250 251 248 244 246 250 250 249 247 251 259 260 263 267 264 273 279 264 248 251 272 287 261 280 301 278 262 227 194 194 195 194 202 202 188 176 172 194 200 171 171 184 181 191 202 192 185 187 192 216 235 242 224 206 208 192 113 208 222 167 130 150 222
337 338 341 343 344 345 344 345 348 349 352 353 341 282 285 318 286 281 292 292 278 243 245 252 254 264 266 259 252 246 244 247 244 245 253 257 261 263 263 277 295 290 275 266 265 262 249 255 275 288 295 269 231 221 203 191 194 206 199 186 170 176 191 178 172 182 188 199 213 182 160 167 189 202 225 250 254 228 186 157 168 186 193 195 165 154 173
337 338 339 342 343 343 344 346 347 348 351 351 338 259 244 292 291 331 341 326 314 287 256 249 251 261 264 268 273 263 256 250 239 235 240 247 250 255 265 281 285 286 287 285 274 268 262 252 259 288 339 325 332 328 278 205 191 202 206 194 179 157 182 177 165 180 194 205 239 221 170 179 191 190 207 231 247 248 208 181 199 169 144 216 200 158 160
335 337 338 341 342 343 345 348 348 348 350 352 342 234 247 295 301 349 0 334 308 323 308 291 289 284 272 258 263 268 266 261 251 239 247 252 241 231 284 285 270 271 277 284 288 283 275 259 260 327 9 354 354 341 322 291 202 199 198 186 178 144 158 179 174 190 208 220 243 247 207 206 216 209 206 209 223 240 233 205 185 157 154 204 198 171 167
333 336 338 339 342 343 345 350 351 350 352 356 341 240 303 338 315 342 359 328 291 296 294 290 293 293 287 271 255 259 261 262 262 257 263 265 238 191 238 257 258 264 267 274 286 297 297 280 260 29 18 9 12 344 324 335 291 207 188 171 167 139 155 197 188 192 218 240 251 254 250 246 272 287 255 213 212 227 231 226 202 182 180 174 177 182 180
331 335 338 338 341 344 346 351 353 352 357 4 355 313 356 358 326 331 333 303 288 288 290 296 298 295 294 287 265 259 255 256 261 259 272 290 284 253 252 251 252 259 261 267 286 332 353 340 326 27 40 35 23 360 300 329 328 288 221 183 157 163 202 211 184 150 245 257 252 247 250 259 274 280 277 256 240 235 232 235 224 220 220 163 163 183 199
330 333 336 338 341 343 346 352 354 356 3 6 353 350 353 333 324 330 317 295 302 306 305 303 295 293 298 287 277 272 264 269 274 266 282 307 300 291 277 259 247 252 258 267 310 356 4 350 338 360 29 30 18 348 299 308 321 313 285 203 147 161 205 185 143 95 309 278 262 237 228 245 262 260 261 258 253 248 245 250 235 226 216 161 156 176 209
328 331 334 337 340 341 345 351 354 359 6 5 346 334 337 330 328 332 314 292 303 307 306 301 292 301 318 312 310 308 301 309 316 311 333 317 301 303 299 279 259 264 276 278 331 355 355 344 334 333 328 318 317 316 306 304 305 302 300 321 139 153 154 128 129 133 208 271 281 256 219 224 241 247 259 263 269 318 340 332 309 263 209 155 157 171 169
324 328 331 335 338 340 344 348 353 359 4 2 343 311 316 325 326 327 321 297 301 314 312 315 320 325 328 327 323 309 307 326 337 337 327 305 298 317 322 302 285 338 345 300 309 336 341 321 306 291 276 290 301 296 292 292 293 294 321 356 77 126 111 99 117 118 178 275 296 294 274 233 227 234 325 320 334 0 7 350 322 298 165 124 122 114 105
319 323 328 332 335 338 341 344 350 356 357 352 335 302 304 320 313 310 337 307 303 325 325 317 319 319 326 331 328 324 324 323 324 325 309 296 311 327 324 319 326 343 335 334 335 341 342 324 314 310 300 305 310 302 292 286 288 296 315 353 63 90 83 72 92 110 121 30 23 341 275 245 238 302 31 31 16 10 20 23 10 17 75 101 99 90 93
315 320 323 328 333 336 338 341 345 350 350 348 335 306 306 317 306 293 346 305 290 318 321 307 309 320 334 336 334 346 352 317 316 322 305 293 324 303 295 317 4 306 312 341 352 347 342 340 332 320 318 322 314 299 290 281 275 274 285 326 54 84 95 87 68 93 127 81 83 157 258 285 341 360 359 17 26 27 24 16 21 42 62 106 118 119 121
311 315 318 323 330 333 335 338 340 342 345 345 333 312 307 311 306 304 338 302 292 306 303 298 316 331 337 335 336 349 351 339 341 332 308 292 253 244 264 308 307 284 330 351 345 340 350 350 333 329 339 329 305 286 283 279 271 255 256 292 20 46 80 84 55 26 112 110 129 174 305 315 346 360 342 6 48 59 71 33 309 8 57 101 123 126 122
306 310 314 319 326 329 331 335 336 338 342 342 333 317 309 310 309 305 305 306 302 296 284 314 333 333 329 333 349 1 355 350 349 331 318 313 297 283 283 275 269 304 15 347 325 346 343 314 306 315 302 279 290 287 275 279 278 252 235 227 190 137 103 100 72 320 46 62 15 335 313 293 251 287 347 12 353 350 91 95 300 329 34 73 112 119 109
303 306 310 315 321 326 329 332 335 336 338 340 336 322 313 316 316 309 306 306 292 282 309 329 328 326 323 338 358 2 355 349 345 330 322 328 334 345 345 315 311 13 16 312 321 359 309 273 271 278 244 229 249 262 267 298 294 262 241 221 210 191 123 122 158 250 76 86 13 269 251 277 275 311 357 6 9 23 56 50 303 314 355 34 95 105 103
301 302 306 312 316 321 326 329 333 335 335 340 338 321 312 324 326 310 297 279 282 277 291 311 323 330 333 345 353 355 356 344 341 341 322 319 336 352 345 332 332 336 292 297 329 281 271 258 258 275 273 257 249 236 245 291 305 298 296 254 226 212 111 131 173 199 157 136 164 268 227 269 292 356 18 14 39 56 61 38 283 299 322 16 88 86 84
297 298 303 308 311 317 323 327 330 332 332 336 335 318 305 311 324 314 298 291 297 271 282 312 327 324 324 340 340 343 355 346 342 351 317 308 341 350 334 322 322 316 297 291 254 242 260 253 239 242 262 266 269 281 207 188 201 279 301 353 122 99 60 70 194 226 196 164 186 225 214 267 306 1 27 34 51 61 82 182 249 296 329 28 77 79 73
292 295 299 303 307 312 318 324 327 330 330 335 338 323 304 307 327 323 304 283 294 283 294 307 305 299 319 340 334 333 350 349 351 357 333 329 358 337 313 288 308 337 334 333 325 269 249 246 235 231 247 259 270 305 308 218 335 323 315 9 61 97 78 53 31 289 336 342 250 264 291 301 340 18 13 21 66 113 173 201 250 310 14 38 52 61 61
294 295 296 299 303 308 314 321 324 326 329 335 339 325 308 312 330 323 308 296 301 296 288 281 278 304 332 330 320 330 345 345 352 360 334 323 339 335 326 333 354 345 350 355 340 287 261 271 259 238 233 257 292 340 352 3 23 23 20 55 47 26 62 119 142 77 58 29 356 8 273 280 294 43 6 3 121 191 197 176 277 356 45 51 44 46 51
293 295 295 297 299 303 311 317 320 325 329 333 338 327 310 311 326 326 324 326 317 283 283 289 302 314 309 297 295 302 305 311 325 336 328 311 325 337 337 326 325 332 2 356 322 318 345 324 296 297 315 275 315 324 318 348 24 11 359 28 59 13 1 109 152 265 115 126 209 210 230 280 305 77 86 17 88 207 198 110 38 16 42 61 53 41 37
291 293 295 297 297 300 306 312 318 323 326 329 335 328 308 307 321 333 334 327 298 263 277 286 291 291 284 280 278 276 277 291 298 299 304 297 299 289 262 289 317 342 19 358 321 332 352 330 308 330 350 4 28 16 356 32 52 10 356 3 40 263 245 162 181 296 75 123 205 213 207 327 351 62 91 69 55 46 49 65 60 36 26 40 52 41 30
288 291 293 295 295 297 302 308 315 320 322 326 329 322 307 307 321 335 334 315 283 273 275 274 275 276 275 274 265 254 257 271 272 272 287 319 300 288 255 359 349 332 359 28 359 316 321 318 308 312 322 340 4 39 52 63 93 94 13 339 328 212 196 177 174 18 23 6 329 346 40 43 38 54 77 81 69 61 56 61 69 61 39 44 56 41 26
286 288 291 294 295 295 298 303 310 315 318 320 319 315 307 302 310 327 330 313 298 308 289 271 266 264 266 276 257 235 236 245 253 263 261 159 264 291 315 49 353 316 333 350 329 290 291 293 287 292 304 325 14 39 65 79 101 130 145 138 357 355 15 43 69 76 64 347 313 329 355 23 42 42 41 52 59 62 65 68 73 66 53 56 54 28 15
283 286 288 292 295 296 297 300 306 311 315 316 316 315 309 300 302 316 315 301 304 323 307 295 284 271 265 304 281 229 232 245 257 258 236 207 204 232 313 352 324 294 302 312 304 288 283 287 293 304 299 301 2 27 68 124 140 178 140 128 168 297 2 42 54 91 125 185 242 309 331 343 27 45 31 28 38 40 38 44 54 48 35 40 48 27 6
280 283 286 289 293 296 297 299 305 308 311 315 315 310 299 293 297 304 300 294 294 278 265 278 294 303 325 335 308 267 214 228 254 258 246 228 225 239 268 303 295 288 288 284 274 260 263 281 296 290 289 299 304 246 173 124 133 174 127 118 147 162 111 134 191 96 105 180 185 98 340 331 16 37 24 14 31 42 33 23 35 43 29 21 34 30 15
278 280 283 286 290 295 297 299 303 306 311 314 312 304 294 288 287 285 281 284 295 297 274 274 297 317 330 321 297 278 239 220 249 254 246 242 243 247 252 249 266 291 292 279 277 267 250 259 274 268 281 321 309 293 286 103 124 161 156 136 132 125 123 147 140 95 125 203 175 119 138 41 40 40 22 8 27 64 62 31 27 43 36 19 19 18 8
278 280 281 283 288 294 295 298 302 306 311 314 313 306 294 283 275 275 279 283 292 302 293 295 296 305 316 309 283 256 223 212 233 239 246 253 244 234 241 253 260 278 287 291 299 294 271 272 282 289 334 352 321 308 265 163 146 62 62 85 84 98 154 169 151 130 151 166 138 134 145 134 118 140 133 39 19 62 76 50 25 29 32 24 16 8 2
275 279 280 282 288 291 292 297 303 306 313 320 319 308 292 274 264 278 298 315 355 354 300 293 284 283 306 311 277 225 198 201 224 232 248 265 258 234 223 231 237 255 278 290 289 290 290 292 295 305 310 234 276 297 292 132 121 11 62 79 72 57 58 89 111 108 99 90 91 100 109 112 114 95 83 53 26 42 59 48 26 13 11 10 357 346 344
273 276 278 280 285 289 292 296 301 307 318 323 316 300 278 242 219 6 20 31 21 357 312 292 292 289 309 304 275 227 193 192 212 228 231 244 259 251 228 223 224 233 247 251 263 286 304 294 294 314 16 40 7 314 326 54 85 223 92 89 84 69 61 59 65 78 81 71 67 82 82 343 347 57 62 45 31 36 40 37 18 348 335 342 339 330 324
272 274 277 278 282 287 291 295 300 309 317 316 306 292 241 142 81 25 31 27 359 335 294 267 283 290 294 278 256 236 209 195 201 222 227 224 231 232 227 230 227 219 225 234 248 265 273 276 294 335 7 13 8 333 341 39 73 119 100 91 88 82 78 72 65 69 77 62 23 351 46 26 32 52 50 29 20 20 14 10 349 325 322 332 322 307 300
271 273 275 278 282 287 290 294 300 305 302 290 275 267 268 275 292 321 344 343 329 313 280 275 281 282 292 268 235 226 222 208 203 217 220 209 208 212 211 215 229 226 216 213 315 287 263 260 284 320 332 343 8 360 348 28 104 132 124 109 91 81 86 89 78 67 61 37 17 33 62 50 45 51 43 15 8 9 358 346 337 330 331 325 306 293 296
267 271 274 277 283 289 291 294 298 298 295 288 277 268 267 273 281 288 292 297 293 270 251 284 293 266 283 300 260 199 196 205 208 212 207 193 187 187 188 204 233 238 126 107 158 248 246 242 233 219 236 207 56 13 324 310 333 44 100 104 95 80 82 87 80 64 51 45 47 59 63 46 28 26 23 9 11 17 6 348 338 334 332 330 325 326 332
264 268 274 281 287 290 293 299 302 299 294 284 275 272 271 274 281 265 246 248 260 259 244 260 287 265 271 295 279 185 188 213 209 191 206 206 192 188 183 178 192 207 149 173 223 248 261 266 225 174 163 123 93 71 281 272 293 330 77 102 109 109 99 77 61 58 55 50 45 41 32 25 22 23 20 13 9 6 358 350 347 345 344 350 352 348 348
266 270 275 283 291 295 299 301 296 291 283 270 266 268 270 272 281 270 235 219 233 272 241 223 255 281 285 289 279 172 207 241 225 181 190 205 204 216 204 147 131 204 196 194 237 247 247 274 282 153 147 125 109 137 240 240 231 76 68 69 71 76 75 64 55 51 46 44 43 31 16 17 24 21 13 7 4 1 357 355 357 357 355 350 344 340 336
270 271 277 290 299 303 304 292 264 252 255 259 264 272 273 276 279 267 246 241 248 267 298 290 267 272 279 285 320 44 283 268 259 163 147 163 196 230 226 189 190 186 168 181 227 227 213 268 330 141 149 147 157 186 230 283 76 77 71 62 56 56 56 52 48 44 38 38 41 33 17 13 19 15 1 355 356 356 350 345 347 354 350 335 322 321 319
266 269 283 301 306 300 288 260 236 234 240 258 294 305 291 278 270 247 236 237 230 222 243 305 278 259 277 294 310 352 346 308 318 20 116 167 199 201 201 213 205 157 164 207 216 198 177 321 339 346 158 147 136 121 82 65 71 76 74 67 62 59 54 48 43 43 40 34 31 27 13 2 1 355 341 338 341 338 332 332 336 335 323 312 307 309 314
263 274 284 292 295 286 269 249 231 234 249 269 293 300 278 239 226 220 208 200 199 198 205 259 257 246 269 282 274 289 335 316 304 310 50 350 319 201 193 210 95 102 188 235 215 102 85 84 38 345 315 55 73 76 77 79 83 83 78 74 68 60 56 53 45 43 41 30 16 8 358 348 341 331 323 323 324 319 313 313 313 307 304 307 312 321 326
252 274 265 257 249 260 293 306 306 272 266 267 267 264 223 187 219 233 190 172 186 194 200 228 242 244 264 272 276 354 7 330 317 339 9 29 27 359 303 340 7 19 348 329 349 3 53 140 153 166 80 63 62 69 77 83 85 81 80 82 78 68 65 63 50 46 51 41 10 351 345 337 328 322 320 318 314 311 309 310 311 311 318 323 322 324 324
232 251 249 244 261 297 304 309 308 287 273 259 230 225 233 207 214 231 181 179 196 201 204 223 230 226 241 252 268 13 7 351 355 348 340 2 31 319 315 351 13 9 33 32 329 328 332 159 139 94 58 45 56 71 79 82 84 84 83 80 73 65 65 63 49 40 41 29 359 333 319 312 310 310 311 310 311 313 314 313 313 315 314 311 309 309 308
229 241 261 308 322 312 304 303 293 262 257 265 226 229 247 209 205 249 250 215 212 203 198 216 233 227 232 241 249 22 3 352 347 310 305 323 341 318 321 20 46 26 24 340 299 304 326 71 84 70 46 35 45 54 57 58 61 66 67 66 63 56 49 44 34 23 13 357 331 311 300 297 295 291 289 291 301 307 305 303 310 316 314 311 307 300 294
295 311 315 319 318 309 296 289 275 241 250 302 299 281 279 251 226 241 236 226 239 215 181 204 237 219 144 91 69 48 3 338 315 294 306 338 337 328 344 340 291 114 87 298 279 305 358 69 84 74 52 46 49 48 45 46 46 45 46 47 42 32 24 19 15 4 350 334 319 308 301 296 296 302 305 305 305 306 311 319 328 330 328 326 323 314 306
302 314 317 315 309 297 275 266 253 215 224 256 316 309 290 263 243 252 250 251 279 260 185 198 231 190 100 74 58 46 355 4 338 304 320 343 320 302 306 292 282 62 93 240 235 115 67 67 75 71 56 50 48 45 43 41 35 30 32 28 19 18 16 7 356 346 337 329 325 322 318 319 324 327 330 333 334 333 333 334 334 332 330 327 324 324 331
312 311 312 301 271 268 282 303 292 267 255 209 174 222 244 218 198 226 238 217 176 173 174 188 280 82 57 40 37 135 144 49 19 309 300 318 272 276 284 304 315 12 55 305 245 120 86 68 60 59 54 48 42 39 39 36 25 16 14 10 9 12 5 348 337 334 332 329 328 325 327 331 327 322 330 345 346 336 327 328 330 330 327 323 322 329 345
321 290 266 357 338 331 34 49 294 254 244 209 208 240 253 230 185 209 226 204 120 99 349 326 329 97 71 37 16 246 35 33 19 323 332 31 318 309 324 336 319 340 11 313 293 81 84 67 45 45 44 38 33 33 34 29 17 9 6 2 0 359 350 340 338 338 334 334 337 336 333 328 320 320 337 345 336 330 332 336 336 333 329 326 329 336 343
317 271 272 348 331 296 260 170 219 244 245 225 222 239 259 287 22 301 310 16 70 83 46 5 2 55 78 70 41 295 335 358 358 333 346 24 359 338 22 109 340 345 347 328 17 74 79 68 46 41 37 30 28 28 25 18 12 11 7 359 354 353 348 342 340 339 339 342 343 338 330 324 325 340 354 339 331 340 353 346 338 339 340 337 335 331 330
301 263 252 306 306 268 244 230 229 237 245 246 249 267 304 51 42 353 4 18 25 37 48 37 19 29 57 72 103 282 305 322 9 7 359 2 354 347 3 20 10 325 325 4 54 68 66 56 45 38 31 29 29 24 16 11 12 13 9 359 353 353 349 343 340 341 343 340 335 329 328 331 338 351 352 333 331 352 3 352 348 356 356 350 348 347 345
306 274 275 304 274 232 229 250 260 261 265 281 308 335 7 107 88 16 22 30 22 16 23 29 16 22 39 23 343 350 2 4 20 22 359 343 350 11 16 7 292 284 15 57 69 62 51 56 57 42 29 29 29 21 13 12 13 14 14 8 357 352 351 348 345 341 335 329 326 330 339 341 343 348 349 341 343 354 357 355 0 3 358 357 5 9 12
291 281 276 277 269 250 265 286 291 290 281 282 300 322 356 81 66 29 18 22 21 15 10 1 359 44 71 14 321 15 29 4 353 47 76 4 3 359 331 303 246 58 50 59 70 60 42 48 59 53 41 35 27 19 20 19 10 7 14 10 355 348 353 355 349 344 341 339 339 345 345 340 337 340 342 340 339 339 341 347 356 1 6 13 11 3 9
265 271 273 271 288 337 349 339 322 296 273 304 327 313 315 74 78 45 17 16 17 1 347 345 356 24 25 355 342 30 99 244 229 145 126 155 219 230 265 359 58 63 47 38 51 57 49 40 42 47 45 33 18 9 15 14 2 359 5 1 350 348 356 359 357 356 355 352 351 352 349 341 335 336 335 330 327 330 336 346 355 356 3 9 356 338 340
235 251 265 271 288 325 352 348 317 304 328 21 360 315 318 49 62 25 353 353 352 312 281 224 192 114 46 23 332 332 38 97 135 160 181 207 223 232 41 50 51 48 34 31 42 51 51 41 37 38 34 19 3 360 4 3 356 351 352 351 349 350 352 354 357 358 354 350 351 355 353 345 343 343 338 332 333 340 352 4 4 354 348 353 351 336 326
258 271 283 303 331 341 352 345 305 311 336 1 335 321 1 50 61 357 316 320 320 315 324 298 250 76 62 43 326 337 26 41 274 242 203 140 43 39 56 61 50 31 24 30 36 42 47 47 39 31 18 360 349 352 359 359 351 342 337 339 344 342 338 339 348 350 342 336 337 339 337 339 347 348 342 341 351 360 354 347 346 341 336 342 348 343 336